Hayward, WI

2:27 PM CDT on June 22, 2017 (GMT -0500)
Sawyer County

Weather History for KHYR - March, 2014

Change the Weather History Date:

Monday, March 3, 2014

  Actual Average Record
Temperature  
Mean Temperature -10 °F -  
Max Temperature 10 °F 44 °F 43 °F (2001)
Min Temperature -29 °F 15 °F -29 °F (2014)
Degree Days  
Heating Degree Days 74    
Moisture  
Dew Point -9 °F    
Average Humidity 71    
Maximum Humidity 80    
Minimum Humidity 33    
Precipitation  
Precipitation 0.03 in - - ()
Sea Level Pressure  
Sea Level Pressure 30.40 in    
Wind  
Wind Speed 2 mph (SSW)    
Max Wind Speed 9 mph    
Max Gust Speed -    
Visibility 6 miles    
Events Snow    
Averages and records for this station are not official NWS values.
T = Trace of Precipitation, MM = Missing Value Source: NWS Daily Summary

Daily Weather History Graph

Daily Weather History Graph

Search for Another Location

Airport or City:

Trip Planner

Search our weather history database for the weather conditions in past years. The results will help you decide how hot, cold, wet, or windy it might be!

Date:

Astronomy

Mar. 03, 2014 Rise Set
Actual Time 6:40 AM CST 5:55 PM CST
Civil Twilight 6:11 AM CST 6:25 PM CST
Nautical Twilight 5:36 AM CST 6:59 PM CST
Astronomical Twilight 5:01 AM CST 7:34 PM CST
Moon 7:39 AM CST (3/3) 9:10 PM CST (3/3)
Length of Visible Light 12h 14m
Length of Day
11h 14m
Waxing Crescent, 8% of the Moon is Illuminated
Mar 3
Waxing Crescent
Mar 8
First Quarter
Mar 16
Full
Mar 23
Last Quarter
Mar 30
New

Hourly Weather History & Observations

Time (CST) Temp. Windchill Dew Point Humidity Pressure Visibility Wind Dir Wind Speed Gust Speed Precip Events Conditions
12:53 AM -23.1 °F - -29.0 °F 74% 30.56 in 10.0 mi Calm Calm - N/A   Clear
1:53 AM -24.0 °F - -29.9 °F 74% 30.57 in 10.0 mi Calm Calm - N/A   Clear
2:53 AM -27.0 °F - -32.1 °F 77% 30.58 in 10.0 mi Calm Calm - N/A   Clear
3:53 AM -27.0 °F - -34.1 °F 69% 30.58 in 10.0 mi Calm Calm - N/A   Clear
4:53 AM -27.9 °F - -35.0 °F 69% 30.58 in 10.0 mi Calm Calm - N/A   Clear
5:53 AM -29.0 °F - -36.0 °F 69% 30.58 in 10.0 mi Calm Calm - N/A   Clear
6:53 AM -29.9 °F - - N/A% 30.58 in 10.0 mi Calm Calm - N/A   Clear
7:53 AM -24.0 °F - -29.9 °F 74% 30.57 in 10.0 mi Calm Calm - N/A   Clear
8:53 AM -13.0 °F -22.7 °F -18.9 °F 75% 30.55 in 10.0 mi South 3.5 mph - N/A   Clear
9:53 AM -4.0 °F -12.4 °F -16.1 °F 56% 30.53 in 10.0 mi South 3.5 mph - N/A   Clear
10:53 AM 1.0 °F -8.7 °F -15.0 °F 47% 30.52 in 10.0 mi SSW 4.6 mph - N/A   Clear
11:53 AM 3.9 °F -6.9 °F -15.0 °F 41% 30.50 in 10.0 mi Variable 5.8 mph - N/A   Partly Cloudy
12:53 PM 7.0 °F -3.3 °F -13.0 °F 40% 30.48 in 10.0 mi Variable 5.8 mph - N/A   Scattered Clouds
1:53 PM 9.0 °F -2.2 °F -15.0 °F 33% 30.45 in 10.0 mi Variable 6.9 mph - N/A   Overcast
2:53 PM 10.0 °F 0.4 °F -14.1 °F 33% 30.44 in 10.0 mi Variable 5.8 mph - N/A   Overcast
3:53 PM 10.0 °F 1.8 °F -7.1 °F 46% 30.43 in 6.0 mi Variable 4.6 mph - 0.00 in Snow Light Snow
4:37 PM 8.1 °F -0.5 °F -0.9 °F 67% 30.30 in 2.5 mi Variable 4.6 mph - 0.00 in Snow Light Snow
4:44 PM 8.1 °F -5.3 °F 1.0 °F 73% 30.30 in 1.0 mi SSW 9.2 mph - 0.00 in Snow Light Snow
4:53 PM 7.0 °F -3.3 °F 1.0 °F 77% 30.43 in 1.0 mi SW 5.8 mph - 0.00 in Snow Light Snow
5:25 PM 6.1 °F -5.6 °F 1.0 °F 80% 30.29 in 0.8 mi SSW 6.9 mph - 0.00 in Snow Light Snow
5:53 PM 6.1 °F -5.6 °F 1.0 °F 80% 30.42 in 0.8 mi SSW 6.9 mph - 0.02 in Snow Light Snow
6:05 PM 5.0 °F -5.6 °F -0.0 °F 80% 30.29 in 1.0 mi SSW 5.8 mph - 0.00 in Snow Light Snow
6:15 PM 5.0 °F -4.1 °F -0.0 °F 80% 30.28 in 1.2 mi South 4.6 mph - 0.00 in Snow Light Snow
6:29 PM 5.0 °F -2.1 °F -0.0 °F 80% 30.28 in 1.0 mi SSW 3.5 mph - 0.01 in Snow Light Snow
6:36 PM 5.0 °F -4.1 °F -0.0 °F 80% 30.28 in 1.2 mi SSW 4.6 mph - 0.01 in Snow Light Snow
6:48 PM 5.0 °F -2.1 °F -0.4 °F 78% 30.28 in 2.5 mi South 3.5 mph - 0.01 in Snow Light Snow
6:53 PM 5.0 °F -2.1 °F -0.0 °F 80% 30.41 in 2.5 mi South 3.5 mph - 0.01 in Snow Light Snow
7:04 PM 5.0 °F - -0.0 °F 80% 30.27 in 2.5 mi Calm Calm - 0.00 in Snow Light Snow
7:12 PM 5.0 °F - -0.0 °F 80% 30.27 in 3.0 mi Calm Calm - 0.00 in Snow Light Snow
7:42 PM 5.0 °F - -0.0 °F 80% 30.27 in 2.5 mi Calm Calm - 0.00 in Snow Light Snow
7:53 PM 5.0 °F - -0.0 °F 80% 30.40 in 1.8 mi Calm Calm - 0.00 in Snow Light Snow
8:06 PM 5.0 °F - -0.0 °F 80% 30.27 in 2.5 mi Calm Calm - 0.00 in Snow Light Snow
8:14 PM 5.0 °F - -0.0 °F 80% 30.27 in 3.0 mi Calm Calm - 0.00 in Snow Light Snow
8:35 PM 5.0 °F - -0.0 °F 80% 30.26 in 2.0 mi Calm Calm - 0.00 in Snow Light Snow
8:53 PM 5.0 °F - -0.0 °F 80% 30.38 in 2.5 mi Calm Calm - 0.00 in Snow Light Snow
9:07 PM 5.0 °F -2.1 °F -0.0 °F 80% 30.26 in 4.0 mi SSW 3.5 mph - 0.00 in Snow Light Snow
9:53 PM 5.0 °F -5.6 °F -0.0 °F 80% 30.35 in 6.0 mi South 5.8 mph - 0.00 in Snow Light Snow
10:53 PM 5.0 °F -4.1 °F -0.0 °F 80% 30.32 in 9.0 mi South 4.6 mph - 0.00 in Snow Light Snow
11:53 PM 5.0 °F -4.1 °F -0.0 °F 80% 30.32 in 10.0 mi SSW 4.6 mph - 0.00 in   Overcast